Location: Abbey Hill
(34.0751°N, 84.0688°W)
Time: 01:58:54
(UTC+00:00)

Nauka - Visible Passes

Search period start: 18 September 2021 00:00
Search period end: 28 September 2021 00:00
Orbit: 419 x 423 km, 51.6° (Epoch: 17 September)

Date Brightness Start Highest point End Pass type
(mag) Time Alt. Az. Time Alt. Az. Time Alt. Az.
18 Sep ? 00:11:49 10° SW 00:15:10 82° NW 00:18:33 10° NE visible
18 Sep ? 01:51:17 10° NW 01:52:29 11° NNW 01:53:12 11° NNW visible
19 Sep ? 01:03:09 10° WNW 01:05:23 16° NNW 01:07:37 10° N visible
20 Sep ? 00:15:30 10° W 00:18:20 25° NW 00:21:11 10° NNE visible
22 Sep ? 00:20:47 10° NW 00:21:46 11° NNW 00:22:45 10° N visible
